Wind_Speed
22 22 22 23 23 23 23 23 22 22 22 23 22 23 23 24 25 26 27 27 28 28 28 28 29 31 32 34 36 37 38 39 40 41 41 42 41 41
22 22 22 22 22 22 21 21 21 21 20 21 22 22 23 23 23 25 26 26 26 27 28 29 30 30 31 32 34 36 38 38 39 40 41 42 42 42
21 21 21 21 20 20 19 20 21 21 20 20 21 22 22 22 23 23 24 25 25 25 26 28 29 30 31 32 33 34 36 37 38 38 40 41 41 41
19 20 20 20 19 19 19 19 20 20 21 20 20 21 22 22 23 23 23 24 24 25 26 26 27 28 29 29 31 33 35 36 37 39 39 40 41 41
19 19 19 19 18 18 19 19 19 20 20 20 20 20 21 22 22 23 23 23 24 25 26 26 26 27 28 29 30 31 33 34 35 37 38 39 40 40
19 18 18 18 18 18 18 18 19 19 20 19 19 19 20 21 20 21 21 21 22 24 24 24 25 25 26 28 29 30 31 32 33 35 36 37 38 39
18 18 18 18 18 19 19 18 18 18 18 18 18 19 20 20 20 21 21 21 21 23 23 23 23 23 25 26 27 29 30 31 33 33 35 35 37 38
18 18 18 18 18 18 18 17 17 17 18 18 19 19 19 20 20 21 21 21 21 21 22 22 23 23 23 24 25 26 27 29 31 32 33 34 35 36
16 16 17 17 17 16 16 16 17 18 18 18 19 19 19 20 20 19 19 20 20 21 21 21 23 22 23 24 25 25 26 27 29 30 30 32 33 35
15 15 16 16 16 16 16 17 18 18 18 18 19 19 19 19 19 18 18 18 19 20 20 20 22 22 24 25 25 25 25 26 27 28 29 30 31 33
15 15 16 16 17 17 17 17 17 17 17 17 17 17 18 18 18 18 18 18 19 20 20 20 20 21 23 23 24 25 26 26 26 27 28 30 31 32
15 15 16 16 17 17 17 17 17 17 17 17 17 17 16 17 17 17 17 18 18 18 19 20 21 22 22 23 23 24 25 26 27 28 28 29 31 32
15 15 15 16 17 17 17 18 18 18 17 18 18 18 18 18 18 18 18 18 18 17 18 19 20 21 22 22 23 24 25 25 27 28 28 29 30 31
15 16 16 17 17 17 17 18 18 18 18 18 19 19 19 19 18 18 18 18 18 19 19 20 20 21 21 22 22 23 24 25 25 26 27 29 30 30
16 16 17 17 18 18 18 19 19 19 19 19 19 19 19 19 19 19 19 19 20 20 20 20 20 21 22 22 22 22 23 24 25 26 27 28 29 30
17 17 18 18 19 19 20 20 20 20 20 19 19 19 19 19 20 20 20 19 19 19 20 20 21 20 21 22 23 23 23 24 25 26 27 28 29 30
18 19 19 19 19 19 20 21 21 21 21 20 20 20 20 20 20 20 20 20 20 19 20 21 21 21 21 22 23 23 24 24 25 26 27 27 28 29
18 19 19 19 20 20 20 21 22 21 21 21 20 19 20 20 20 21 21 20 20 20 20 20 21 21 22 23 23 23 25 25 26 27 27 28 28 29
18 19 19 19 20 20 20 21 22 21 22 22 21 20 20 20 20 20 21 21 21 21 21 20 20 21 21 21 22 23 23 24 25 26 27 28 29 30
19 19 19 20 20 21 22 22 22 22 22 22 21 20 21 21 21 20 20 20 21 21 21 20 20 20 20 20 21 22 23 23 24 25 26 27 28 29
19 19 20 20 21 22 23 23 23 23 23 22 22 21 21 21 21 21 21 21 21 21 20 20 20 19 20 21 21 22 23 24 24 25 26 26 27 27
21 21 21 21 22 23 23 23 24 23 23 22 22 21 21 21 21 21 21 20 20 20 20 19 19 19 19 19 20 21 22 23 24 25 25 25 25 26
22 22 22 22 22 22 23 23 23 23 23 23 22 21 21 21 21 21 21 21 20 19 19 18 18 18 18 19 20 20 20 21 22 23 24 25 26 26
Wind_Direction
300 301 300 298 296 294 291 288 285 283 281 279 278 276 274 272 269 265 262 261 256 253 253 251 250 250 249 246 243 243 242 240 239 239 239 239 238 238
301 302 302 300 298 297 292 289 286 283 281 280 280 280 277 274 271 267 266 264 261 258 256 254 252 252 251 248 245 243 242 242 240 239 239 239 239 239
304 305 305 303 301 298 294 292 289 286 285 284 283 282 280 276 274 271 268 265 263 261 257 255 253 251 251 249 246 243 242 242 241 240 240 240 239 239
308 308 308 307 304 300 297 294 292 290 288 286 285 284 281 279 275 273 270 265 261 258 257 256 253 251 250 249 246 244 242 242 241 240 240 240 238 238
311 311 311 309 306 303 299 296 294 292 290 288 287 287 286 284 279 276 273 267 262 258 258 258 256 253 251 249 248 246 244 242 241 241 241 240 239 238
314 314 313 311 309 306 302 298 296 295 293 290 289 288 286 285 282 279 275 272 265 260 260 259 257 256 253 252 251 249 245 241 240 240 238 239 239 238
316 317 316 314 313 309 304 301 300 299 297 293 292 292 288 284 282 280 276 273 268 263 261 260 259 258 256 251 251 249 247 243 241 241 239 239 237 236
317 317 315 315 315 312 310 308 306 303 299 296 296 295 293 288 285 281 275 272 270 265 263 261 260 258 257 252 251 250 247 242 239 238 238 239 237 237
319 320 321 320 321 319 318 314 311 307 302 300 298 297 294 290 287 284 280 275 271 267 265 264 261 258 256 255 253 251 249 243 239 237 237 238 238 239
320 321 323 324 324 322 321 320 317 314 311 307 304 300 298 294 291 286 281 276 274 271 268 264 262 260 256 255 254 250 249 246 241 240 239 238 238 238
318 320 322 323 323 321 319 320 320 320 318 314 310 305 299 296 292 286 281 278 275 273 270 266 263 261 257 255 253 251 250 248 246 245 244 242 241 240
322 322 324 324 325 324 323 323 321 320 320 320 317 313 307 303 298 291 286 283 280 276 270 267 265 261 258 257 255 252 250 249 248 246 246 245 243 243
326 327 326 327 326 325 325 324 323 320 317 316 315 313 309 307 303 296 292 288 286 281 275 271 268 263 259 257 256 254 252 251 249 247 245 246 246 245
324 325 325 325 325 325 326 326 323 321 317 313 312 310 308 306 304 300 295 289 286 283 278 275 271 266 262 260 258 256 253 252 251 250 248 246 244 244
324 325 324 324 324 323 324 324 323 321 318 315 312 311 309 307 305 302 298 294 292 287 282 278 274 270 266 263 260 256 253 251 251 251 249 247 245 245
323 324 323 323 322 321 320 319 319 319 317 315 312 310 309 308 307 304 301 297 293 289 285 279 274 272 268 264 260 257 256 254 254 254 252 249 247 246
327 327 327 327 325 322 320 320 321 320 318 316 314 312 310 309 306 305 303 300 297 291 285 282 278 272 268 264 261 259 259 258 256 255 255 253 251 249
329 328 328 329 328 326 323 323 325 324 321 319 316 314 313 312 310 307 305 302 299 297 291 285 280 276 271 267 263 260 258 259 258 257 257 255 253 251
331 330 330 330 330 330 328 327 326 325 323 321 318 316 316 316 313 311 309 308 305 302 297 293 287 280 272 267 266 265 263 262 261 261 259 257 254 253
334 332 333 332 331 330 329 329 328 327 326 324 322 318 317 317 315 313 311 309 308 305 301 297 291 284 275 269 266 266 266 266 263 261 260 259 258 257
334 332 331 331 329 329 328 328 328 328 328 327 325 323 320 318 317 315 312 310 307 305 303 300 296 288 281 276 271 269 269 269 266 263 261 261 260 258
335 333 332 330 329 329 329 329 329 330 329 328 326 324 323 322 320 317 314 313 310 306 303 301 297 292 286 284 280 276 272 268 267 267 265 263 260 259
337 337 336 334 332 330 330 330 330 331 330 329 327 326 325 324 324 320 317 316 314 310 305 301 297 292 289 287 285 282 278 273 269 266 264 262 260 259
Height
5723 5721 5718 5715 5712 5710 5707 5705 5705 5703 5702 5700 5699 5697 5695 5694 5693 5693 5694 5694 5694 5695 5695 5697 5698 5700 5701 5704 5706 5709 5712 5715 5718 5722 5726 5730 5734 5738
5718 5715 5712 5708 5706 5703 5701 5699 5697 5697 5696 5694 5692 5691 5689 5687 5686 5686 5686 5686 5686 5687 5688 5689 5690 5691 5693 5695 5697 5699 5702 5705 5708 5712 5716 5720 5723 5727
5713 5710 5706 5703 5700 5697 5695 5693 5691 5690 5689 5688 5686 5684 5682 5681 5680 5679 5679 5679 5679 5679 5680 5680 5681 5683 5684 5686 5688 5691 5693 5696 5699 5702 5705 5709 5713 5717
5708 5705 5701 5698 5695 5692 5690 5688 5686 5684 5683 5681 5680 5678 5676 5675 5673 5672 5672 5672 5672 5672 5672 5673 5674 5675 5676 5678 5679 5682 5684 5686 5689 5692 5696 5699 5703 5706
5703 5700 5697 5694 5690 5688 5685 5683 5680 5679 5677 5675 5674 5672 5670 5669 5667 5666 5665 5664 5664 5665 5665 5666 5666 5667 5668 5670 5671 5673 5675 5677 5680 5683 5685 5689 5692 5696
5699 5696 5693 5689 5686 5683 5680 5678 5675 5673 5671 5669 5668 5666 5664 5662 5661 5660 5659 5658 5658 5658 5658 5658 5659 5659 5660 5661 5663 5664 5666 5668 5670 5673 5676 5679 5683 5686
5695 5692 5688 5685 5681 5678 5675 5673 5670 5668 5666 5664 5662 5660 5658 5657 5655 5654 5652 5651 5651 5651 5651 5651 5651 5652 5652 5653 5654 5656 5657 5659 5661 5664 5667 5670 5673 5677
5691 5687 5684 5680 5677 5674 5671 5668 5666 5663 5661 5659 5657 5655 5653 5651 5649 5647 5646 5645 5645 5645 5644 5644 5644 5645 5645 5646 5647 5648 5649 5651 5653 5655 5658 5661 5664 5667
5687 5683 5680 5677 5673 5669 5667 5664 5661 5659 5656 5654 5652 5649 5647 5645 5643 5642 5640 5639 5638 5638 5638 5638 5638 5638 5638 5639 5639 5640 5641 5643 5645 5647 5649 5652 5655 5658
5683 5679 5676 5673 5670 5666 5663 5660 5657 5654 5651 5649 5646 5644 5641 5639 5637 5635 5634 5633 5632 5631 5630 5631 5631 5630 5631 5631 5631 5632 5634 5635 5637 5639 5641 5644 5646 5649
5679 5676 5673 5670 5666 5663 5660 5657 5654 5650 5647 5644 5641 5638 5636 5633 5631 5629 5628 5627 5626 5625 5624 5624 5623 5623 5623 5623 5624 5625 5626 5627 5629 5631 5633 5636 5638 5641
5676 5673 5670 5666 5663 5659 5656 5653 5650 5647 5643 5640 5637 5634 5631 5628 5626 5624 5622 5620 5619 5619 5618 5617 5617 5616 5617 5617 5617 5617 5618 5619 5621 5623 5625 5627 5629 5632
5673 5669 5666 5663 5659 5656 5653 5649 5646 5643 5639 5636 5633 5629 5626 5623 5621 5618 5616 5615 5613 5612 5611 5610 5609 5609 5609 5610 5610 5610 5610 5611 5613 5615 5616 5619 5621 5623
5669 5666 5663 5660 5656 5653 5649 5646 5642 5639 5635 5632 5629 5625 5622 5619 5616 5613 5611 5609 5607 5606 5604 5603 5602 5601 5601 5601 5602 5602 5603 5604 5605 5606 5608 5610 5612 5615
5666 5662 5659 5656 5652 5648 5645 5642 5638 5635 5631 5627 5624 5620 5617 5614 5611 5608 5606 5603 5601 5599 5597 5596 5595 5594 5594 5594 5594 5594 5595 5596 5597 5598 5600 5602 5604 5606
5662 5658 5655 5651 5647 5644 5640 5637 5634 5630 5626 5622 5619 5615 5612 5609 5606 5603 5601 5598 5595 5593 5591 5589 5588 5587 5586 5586 5587 5587 5588 5588 5589 5590 5591 5593 5595 5597
5658 5654 5651 5647 5643 5639 5636 5632 5628 5624 5621 5617 5614 5611 5608 5604 5601 5598 5595 5592 5589 5587 5585 5582 5581 5579 5579 5579 5579 5580 5580 5580 5581 5582 5583 5584 5586 5588
5654 5650 5646 5643 5639 5635 5631 5627 5623 5620 5616 5612 5609 5605 5602 5599 5595 5592 5589 5586 5583 5580 5578 5575 5573 5572 5572 5572 5572 5572 5572 5572 5573 5573 5574 5576 5577 5579
5650 5646 5643 5639 5635 5631 5627 5623 5619 5615 5611 5607 5603 5600 5597 5593 5590 5586 5583 5580 5576 5574 5571 5569 5567 5565 5565 5565 5564 5563 5563 5564 5564 5565 5565 5566 5568 5570
5647 5643 5639 5635 5631 5627 5623 5619 5614 5610 5606 5602 5598 5595 5591 5588 5584 5581 5577 5574 5571 5568 5565 5562 5560 5558 5557 5557 5557 5556 5555 5555 5556 5556 5557 5557 5558 5560
5643 5639 5635 5631 5627 5623 5619 5614 5610 5606 5601 5597 5593 5589 5586 5582 5578 5575 5571 5568 5565 5562 5559 5556 5553 5551 5550 5549 5549 5549 5548 5547 5547 5548 5548 5549 5550 5550
5640 5636 5631 5627 5623 5619 5614 5610 5605 5601 5597 5592 5588 5584 5581 5577 5573 5569 5566 5562 5558 5555 5552 5549 5547 5545 5543 5542 5541 5541 5540 5540 5539 5539 5539 5540 5540 5541
5636 5632 5627 5623 5619 5614 5610 5605 5601 5596 5592 5587 5583 5579 5575 5572 5568 5564 5560 5556 5552 5549 5546 5543 5541 5539 5537 5535 5534 5533 5532 5532 5531 5531 5532 5532 5532 5532